Regional Weather Roundup
Issued by NWS

Home | Current Version | Previous Version | Graphics & Text | Print | Product List | Glossary On
Versions: 1 2 3 4 5 6 7 8 9 10 11 12 13 14 15 16 17 18 19 20 21 22 23 24 25 26 27 28 29 30 31 32 33 34 35 36 37 38 39 40 41 42 43 44 45 46 47 48 49 50
000
ASUS43 KMPX 300901
RWRMN
WEATHER ROUNDUP FOR MINNESOTA
NATIONAL WEATHER SERVICE TWIN CITIES/CHANHASSEN MN
400 AM CDT MON MAR 30 2015


NOTE: "FAIR" INDICATES FEW OR NO CLOUDS BELOW 12,000 FEET WITH NO
SIGNIFICANT WEATHER AND/OR OBSTRUCTIONS TO VISIBILITY. N/A MEANS
CURRENT SKY AND/OR WEATHER CONDITIONS ARE NOT AVAILABLE.

MNZ060>063-068>070-301000-
   Twin Cities Metro

CITY           SKY/WX    TMP DP  RH WIND       PRES   REMARKS
TWIN CITIES    CLOUDY    40  28  62 SW8       29.95F
ST PAUL        CLOUDY    40  28  62 CALM      29.96F
CRYSTAL        CLOUDY    41  28  60 W8        29.93F
BLAINE         MOCLDY    41  30  65 SW5       29.94S
LAKEVILLE      CLEAR     37  28  70 W3        29.95F
EDEN PRAIRIE   FAIR      36  28  73 SW7       29.95F
SOUTH ST PAUL  MOCLDY    41  29  61 W9        29.95S
LAKE ELMO      MOCLDY    39  30  70 SW6       29.95F
$$
MNZ001>005-007-008-013>017-022>024-027-028-301000-
   Northwest Minnesota

CITY           SKY/WX    TMP DP  RH WIND       PRES   REMARKS
BEMIDJI        CLEAR     27  23  84 CALM      29.87S
HALLOCK        MOCLDY    32  30  93 SW5       29.86S WCI  27
ROSEAU         CLEAR     34  27  75 CALM      29.85S
WARROAD        CLEAR     30  27  86 SW3       29.85S
THIEF RVR FALL CLEAR     32  27  80 CALM      29.88S
CROOKSTON      CLEAR     30  27  86 SW3       29.90S
FOSSTON        CLEAR     27  25  93 CALM      29.89S
DETROIT LAKES  CLEAR     32  30  93 S3        29.92R
MOORHEAD       MOCLDY    34  32  93 SW5       29.93R WCI  30
PARK RAPIDS    CLEAR     31  26  82 W3        29.88F
MAHNOMEN       FAIR      28  26  91 S5        29.89S WCI  23
$$
MNZ006-009>011-018-025>026-301000-
   North Central Minnesota

CITY           SKY/WX    TMP DP  RH WIND       PRES   REMARKS
BAUDETTE       CLEAR     29  23  78 W3        29.84S
FLAG ISLAND    CLEAR     32  25  74 N3        29.83S
INTL FALLS     CLEAR     30  23  75 W3        29.83R
WASKISH        CLEAR     28  27  93 CALM      29.86S
BIG FORK       CLEAR     28  25  86 CALM      29.86S
LONGVILLE      CLEAR     25  25 100 CALM      29.89S
GRAND RAPIDS   CLEAR     36  25  64 CALM      29.86S
CRANE LAKE     CLEAR     27  25  93 CALM      29.84R
ORR            CLEAR     30  21  69 CALM      29.81S
COOK           CLEAR     28  25  86 CALM      29.84R
WALKER         FAIR      34  26  74 W6        29.88S WCI  29
$$
MNZ012-019>021-037-301000-
   Northeast Minnesota

CITY           SKY/WX    TMP DP  RH WIND       PRES   REMARKS
DULUTH         CLEAR     36  25  64 NW13      29.84R
ELY            CLEAR     32  25  74 W5        29.81R WCI  27
HIBBING        CLEAR     34  23  64 W5        29.84S WCI  30
EVELETH        CLEAR     34  27  75 NW6       29.85R WCI  29
DULUTH HARBOR  CLEAR     37  27  65 SW3       29.86S
TWO HARBORS    CLEAR     39  28  65 W7        29.81R
SILVER BAY     CLEAR     36  25  64 W6        29.79R
GRAND MARAIS     N/A     37  27  67 NW10G23   29.74R
G MARAIS ARPRT CLEAR     30  23  74 NW9G17    29.72F WCI  22
$$
MNZ029>031-032-039>041-046>048-054>057-064-301000-
   West Central Minnesota

CITY           SKY/WX    TMP DP  RH WIND       PRES   REMARKS
FERGUS FALLS   CLEAR     30  27  86 S3        29.95S
WHEATON        CLEAR     36  27  69 SW8       29.96F
MORRIS         CLEAR     32  27  80 SW5       29.93F WCI  27
ALEXANDRIA     CLEAR     32  26  78 SW7       29.93F WCI  26
ELBOW LAKE     FAIR      31  27  84 S3        29.93S
WADENA         CLEAR     30  25  80 W5        29.91S WCI  25
GLENWOOD       CLEAR     32  27  80 W9        29.94S WCI  24
APPLETON       CLEAR     30  27  86 W5        29.95S WCI  25
BENSON         CLEAR     28  25  86 CALM      29.95F
ORTONVILLE     PTCLDY    39  25  56 W5        29.94F
MADISON        PTCLDY    37  27  65 W6        29.95F
WILLMAR        FAIR      34  27  75 CALM      29.97S
$$
MNZ033>034-036-042>043-049>051-058-059-301000-
   Central Minnesota

CITY           SKY/WX    TMP DP  RH WIND       PRES   REMARKS
ST CLOUD       CLEAR     34  27  75 S3        29.93S
SAUK CENTRE    FAIR      32  27  82 CALM      29.93F
PAYNESVILLE    CLEAR     30  26  84 SW7       29.94F WCI  23
AITKIN         CLEAR     27  19  74 SW3       29.88F
PINE RIVER     CLEAR     27  25  93 CALM      29.93S
BRAINERD       FAIR      27  22  81 S3        29.90F
STAPLES        CLEAR     30  25  80 W3        29.91S
LONG PRAIRIE   FAIR      32  28  86 SW5       29.93S WCI  27
LITTLE FALLS   CLEAR     28  27  93 CALM      29.92S
LITCHFIELD     CLEAR     37  28  70 CALM      29.95F
BUFFALO        CLEAR     34  28  80 CALM      29.96S
MAPLE LAKE     CLEAR     38  30  73 W5        29.94F
$$
MNZ037-044-045-052-053-301000-
   East Central Minnesota

CITY           SKY/WX    TMP DP  RH WIND       PRES   REMARKS
PRINCETON      PTCLDY    37  28  70 SW3       29.93S
MORA           CLEAR     32  23  69 CALM      29.93S
CAMBRIDGE      MOCLDY    36  25  64 CALM      29.91S
RUSH CITY      CLEAR     34  25  71 CALM      29.92S
MOOSE LAKE     CLEAR     34  27  75 CALM      29.87S
HINCKLEY       FAIR      34  27  75 W5        29.91S WCI  30
CLOQUET        CLEAR     36  25  64 W8        29.86R
MCGREGOR       CLEAR     36  27  69 W3        29.89S
$$
MNZ071>073-080-081-089-090-097-098-301000-
   Southwest Minnesota

CITY           SKY/WX    TMP DP  RH WIND       PRES   REMARKS
MONTEVIDEO     CLEAR     37  27  65 W7        29.96F
GRANITE FALLS  CLEAR     36  25  64 SW10      29.98S
CANBY          MOCLDY    43  24  46 SW9       29.97F
MARSHALL       PTCLDY    41  21  45 SW18      29.97F
REDWOOD FALLS  CLEAR     39  25  57 SW13      29.95F
OLIVIA         CLEAR     32  28  86 SW7       29.95F WCI  26
PIPESTONE      PTCLDY    34  21  60 SW3       30.00F
WINDOM         FAIR      36  23  60 SW6       30.00F
WORTHINGTON    PTCLDY    37  19  48 SW10      30.03F
JACKSON        PTCLDY    36  23  60 SW10      30.01F
TRACY          PTCLDY    40  25  54 SW14      29.98F
SLAYTON        PTCLDY    37  20  49 SW10      30.01S
$$
MNZ065>067-074>077-082>085-091>093-301000-
   South Central Minnesota

CITY           SKY/WX    TMP DP  RH WIND       PRES   REMARKS
MANKATO        CLEAR     37  25  60 W9        29.98F
NEW ULM        CLEAR     37  25  60 SW8       29.97F
ST JAMES       CLEAR     36  27  69 SW9       30.00F
FAIRMONT       CLEAR     37  23  56 SW13      30.00F
GLENCOE        CLEAR     37  30  77 SW3       29.95F
FARIBAULT      PTCLDY    34  28  80 S5        29.98S WCI  30
OWATONNA       CLEAR     36  27  69 SW7       29.98F
WASECA         PTCLDY    34  27  75 SW8       30.00S WCI  27
ALBERT LEA     PTCLDY    39  28  65 SW8       29.99F
$$
MNZ078>079-086>088-094>096-301000-
   Southeast Minnesota

CITY           SKY/WX    TMP DP  RH WIND       PRES   REMARKS
ROCHESTER      PTCLDY    35  28  75 W12       29.98S WCI  27
RED WING       MOCLDY    34  28  80 CALM      29.95S
STANTON        PTCLDY    36  30  78 S5        29.95F
DODGE CENTER   PTCLDY    34  28  80 SW9       29.97F WCI  26
WINONA         CLOUDY    36  30  80 CALM      29.97F
AUSTIN         CLEAR     34  27  75 SW5       29.99S WCI  30
PRESTON        PTCLDY    36  28  71 W13       29.99S
$$
ABBREVIATIONS USED IN REMARKS
   TC - TEMPERATURES IN CELSIUS
  WCI - WIND CHILL INDEX
   HX - HEAT INDEX
  VSB - VISIBILITY
$$


USA.gov is the U.S. government's official web portal to all federal, state and local government web resources and services.